Theta_e
318 318 318 318 318 318 318 319 319 319 319 319 319 320 320 322 321 315 304 311 314 349 356 348 338 332 333 333 335 335 318 314 317 319 319 327 326 333 335 330 333 333 329 331 340
318 317 317 317 318 318 318 318 318 319 319 319 319 319 320 322 315 308 318 332 341 355 340 334 328 328 324 325 328 324 314 316 323 323 321 328 329 330 328 328 329 327 332 338 341
317 317 316 317 317 317 318 318 318 318 318 318 319 319 320 321 300 300 347 338 343 353 336 330 327 326 319 320 323 323 315 320 321 325 328 328 329 333 327 324 328 323 328 336 338
316 316 316 316 316 316 316 317 318 317 317 318 318 319 320 313 290 312 351 342 344 347 325 317 322 317 310 314 318 313 321 324 320 321 330 328 330 329 328 328 333 330 333 336 336
315 315 315 315 316 316 316 316 317 318 317 318 318 318 310 294 299 307 340 342 337 326 315 309 303 302 302 306 311 312 314 317 320 321 329 333 329 329 328 333 333 332 334 335 335
314 314 314 314 315 316 316 317 317 317 318 319 318 318 304 291 302 314 329 330 328 320 314 308 306 305 303 305 307 312 314 314 312 314 329 328 328 329 330 332 330 332 332 334 335
314 314 314 314 315 316 316 316 316 317 319 320 319 316 305 296 304 309 306 312 325 317 311 311 308 304 303 303 311 311 305 307 309 312 324 329 323 324 330 330 328 330 332 334 335
313 314 314 314 314 315 315 315 316 319 321 320 320 311 295 307 309 314 308 309 316 316 309 311 309 304 303 307 307 303 302 299 306 322 328 326 316 326 330 327 326 329 331 332 333
314 314 314 314 314 314 313 314 317 320 321 322 308 300 297 316 309 312 312 308 308 312 312 316 308 301 303 301 299 300 297 298 305 320 324 319 314 326 329 327 326 328 330 332 332
314 314 314 314 313 313 313 315 316 320 319 320 318 303 301 302 309 305 302 309 306 310 309 309 302 297 297 298 294 296 297 296 299 315 319 317 318 325 327 326 326 327 329 331 331
314 314 313 313 313 312 309 297 294 293 294 291 293 303 301 303 304 301 302 304 305 304 300 303 298 295 297 300 302 301 300 299 302 309 314 313 319 323 326 325 325 326 327 329 330
314 314 313 313 312 311 302 295 296 297 289 295 295 295 299 300 296 299 300 298 300 296 299 297 294 301 304 302 301 300 297 297 301 316 314 316 316 323 325 325 326 327 328 329 330
314 313 313 312 311 302 298 297 301 294 287 292 295 294 295 297 294 296 297 296 297 296 295 294 298 303 302 299 299 295 295 297 299 312 316 315 311 318 324 326 327 329 330 330 330
313 313 312 310 298 298 297 300 301 297 283 290 294 297 297 296 293 300 299 298 295 295 296 295 299 301 298 298 298 290 303 302 301 300 302 312 301 310 318 321 324 326 328 329 330
313 312 311 310 299 296 299 301 300 294 277 295 295 300 296 293 296 297 299 295 294 297 296 295 296 297 296 298 300 297 305 301 301 296 301 305 302 307 314 316 321 324 327 329 331
312 311 310 303 301 301 302 299 293 284 278 292 295 293 292 293 295 297 295 296 296 297 296 297 300 299 299 300 302 303 301 297 300 299 291 297 304 303 309 316 320 324 327 329 330
311 310 307 305 296 301 299 292 283 280 291 288 288 290 287 288 291 292 292 289 286 284 285 292 294 298 301 296 298 297 294 287 286 289 288 297 301 304 311 319 321 322 324 328 331
309 308 304 306 302 302 292 288 279 287 286 290 289 288 286 287 288 289 289 286 291 287 285 287 287 296 300 297 294 293 291 286 283 285 288 301 296 302 313 317 322 324 325 326 329
307 297 297 301 303 297 289 281 281 285 289 288 287 284 284 287 286 288 287 287 289 290 284 286 288 299 300 299 299 291 290 293 288 285 288 294 301 306 311 313 317 320 320 323 326
296 294 296 301 301 291 285 283 282 288 289 288 282 284 281 284 284 284 285 289 290 293 290 286 285 292 300 300 297 294 296 290 285 283 283 288 293 298 309 311 314 317 320 322 324
294 293 299 299 295 289 281 281 286 291 290 286 283 282 282 283 283 282 284 289 292 292 293 289 286 291 294 293 293 291 289 288 289 287 285 285 291 300 307 310 313 315 321 322 324
291 289 300 295 288 281 282 285 292 288 290 288 287 285 283 284 282 283 284 287 294 292 289 291 284 283 290 295 296 293 293 291 287 286 287 288 292 302 305 308 312 315 320 323 326
289 289 299 295 283 282 286 288 289 288 288 286 286 287 287 283 280 285 287 292 293 291 291 295 285 281 285 291 293 292 294 289 287 287 287 288 292 303 307 312 318 321 322 324 325
291 287 291 290 286 284 284 285 288 294 289 289 286 288 285 283 284 283 285 291 293 292 303 295 286 283 281 285 289 290 293 295 288 285 287 289 294 299 305 312 314 320 322 323 324
290 286 287 283 285 285 285 288 287 288 292 289 284 286 284 279 281 282 286 287 291 295 291 289 283 283 286 288 291 292 293 295 292 291 289 293 294 298 302 311 314 319 320 321 323
289 288 288 284 284 284 288 287 289 289 289 288 286 288 285 281 282 281 284 283 284 288 287 286 284 286 288 293 294 294 297 297 297 297 295 295 295 301 304 307 315 318 320 320 320
295 293 290 285 283 284 288 291 290 290 291 292 290 287 286 287 289 289 288 288 287 285 285 284 284 284 283 291 292 291 298 301 302 309 306 293 298 314 309 311 316 319 320 321 321
Wind_Speed
20 20 20 21 22 23 23 22 22 22 21 21 19 17 16 17 16 1 8 10 6 14 14 11 3 5 4 4 4 2 2 1 4 5 4 7 5 2 4 9 3 4 6 9 17
21 21 21 22 21 21 22 22 22 21 21 20 19 17 15 16 4 7 12 5 6 19 10 14 7 8 3 4 3 3 2 6 5 3 4 10 11 8 4 8 2 7 14 19 18
22 22 22 23 23 23 22 21 21 20 21 19 18 17 15 11 5 7 6 13 14 15 9 7 9 7 3 3 4 5 5 5 4 6 7 10 8 5 10 5 6 19 20 20 18
23 23 23 24 24 24 24 24 22 21 20 19 16 15 15 2 4 3 8 11 11 8 8 6 7 7 5 6 6 3 8 7 4 3 8 12 12 7 12 5 9 19 23 21 19
23 23 24 25 25 25 26 25 23 22 21 18 13 10 5 3 12 5 6 11 7 7 7 7 6 6 5 5 4 6 5 6 9 4 8 12 12 6 13 1 17 19 20 19 15
24 24 25 26 26 26 26 24 23 22 23 16 9 5 3 5 4 3 9 6 3 6 6 6 8 7 4 4 3 4 6 7 8 10 12 13 6 9 7 11 18 19 19 16 15
24 25 25 26 28 28 29 28 24 23 21 13 8 5 3 16 1 8 2 5 6 6 6 5 4 6 4 3 3 5 6 6 2 5 8 11 3 8 12 15 18 17 16 14 14
25 25 26 26 27 28 30 30 27 21 9 5 10 2 9 4 1 8 3 4 4 5 1 3 4 2 1 4 5 1 3 2 3 5 9 11 14 4 16 18 16 16 14 14 11
24 25 25 26 27 28 30 30 21 5 9 14 4 1 10 4 2 6 6 5 7 4 2 5 6 4 2 3 5 5 3 3 1 2 12 4 4 8 14 15 16 15 14 13 10
23 24 26 27 28 29 33 26 4 9 5 5 3 3 4 5 5 7 3 4 3 7 2 4 4 4 3 4 6 3 1 1 2 4 5 4 2 11 14 15 17 15 13 14 13
24 25 26 27 29 29 18 5 8 5 6 5 5 5 9 8 5 4 3 4 3 4 6 5 4 7 7 7 4 1 2 3 1 1 4 4 6 14 14 11 13 13 13 13 15
24 24 25 27 27 28 2 6 7 4 11 8 11 8 10 3 5 4 2 5 5 5 3 4 7 9 9 6 4 4 4 3 3 4 6 5 2 8 13 14 16 17 15 16 12
23 23 24 26 30 5 3 5 2 5 2 9 5 4 5 8 6 8 3 3 4 6 5 7 4 8 6 6 6 3 5 3 3 2 5 6 3 6 8 6 8 10 12 13 15
23 23 22 26 4 5 4 3 5 5 5 8 4 2 2 4 3 6 5 4 1 9 8 5 4 6 5 4 5 2 7 5 2 4 4 2 4 6 8 12 12 13 14 15 16
22 23 18 14 5 3 5 7 6 4 3 9 7 2 8 2 7 3 2 4 7 6 7 8 6 7 4 6 5 6 6 2 2 3 3 1 4 7 8 13 19 19 18 18 16
23 22 21 2 2 8 8 8 4 7 4 7 6 9 8 8 9 7 1 3 3 4 1 7 2 6 11 4 8 4 2 6 4 4 1 8 7 6 9 21 19 16 20 21 19
25 25 13 4 4 5 6 4 6 4 6 8 6 7 3 9 9 10 7 11 6 4 4 3 3 2 3 6 2 4 7 3 3 1 8 5 5 9 10 14 21 22 22 22 21
28 18 1 4 4 6 4 6 2 2 3 3 6 4 6 9 7 12 4 7 9 7 3 6 5 6 3 7 7 7 9 7 6 6 4 4 7 8 12 15 19 14 16 15 18
20 4 2 4 3 1 6 5 2 1 3 5 3 7 7 6 3 8 7 9 4 9 5 3 5 5 4 5 10 4 5 6 5 2 2 4 7 10 7 7 8 16 9 17 19
3 4 4 8 2 5 7 2 1 2 4 4 4 4 6 9 7 7 6 8 8 8 2 3 3 3 4 4 1 8 9 4 3 4 4 5 3 9 4 9 8 10 17 18 13
4 4 4 7 3 7 4 3 3 2 2 4 2 4 3 3 3 4 5 3 10 10 5 5 1 7 1 3 8 2 1 6 6 5 7 2 8 8 10 10 8 12 15 15 14
2 3 4 3 6 2 2 2 5 5 6 5 5 4 2 2 3 4 3 3 9 7 6 3 2 4 8 4 3 3 9 7 7 5 2 2 9 4 8 9 8 10 9 9 12
2 3 5 3 3 3 5 4 4 5 4 2 3 2 1 1 3 3 4 3 10 7 6 7 3 4 4 6 6 6 2 4 5 3 7 7 8 2 5 9 5 5 7 9 10
3 4 6 6 2 3 4 4 5 7 4 3 2 4 4 2 5 1 3 3 8 5 9 3 1 4 5 4 3 4 4 1 6 5 4 6 6 8 10 8 8 2 5 6 8
4 1 2 4 5 4 3 4 3 6 5 5 2 2 3 2 2 0 3 5 6 8 6 4 4 3 7 10 4 5 5 3 5 5 6 6 8 11 10 7 8 3 6 6 7
3 3 4 1 3 2 4 4 5 5 2 4 4 4 2 4 2 2 1 1 4 5 6 5 3 3 5 7 7 5 8 7 5 2 6 5 7 6 9 8 7 9 5 7 9
2 2 4 4 3 2 2 3 4 4 2 3 2 2 2 2 3 5 6 4 4 2 3 3 2 1 5 4 5 4 5 2 0 7 3 4 5 12 9 11 6 6 5 7 9
Wind_Direction
354 352 349 346 343 340 338 335 333 329 326 324 324 324 325 328 322 304 256 222 182 162 123 130 77 144 165 191 224 134 46 264 201 163 228 155 124 120 76 132 163 168 151 148 145
349 348 345 343 340 336 332 329 327 323 321 320 319 319 324 330 302 254 253 234 152 155 130 154 157 145 174 203 215 126 128 228 197 197 198 176 136 130 112 156 88 79 106 130 145
345 345 343 340 337 334 329 324 321 317 316 314 313 313 321 327 315 251 338 207 172 171 142 144 139 140 188 165 205 182 212 220 249 238 156 155 133 131 132 241 203 153 146 151 152
343 341 340 338 334 330 327 323 319 316 311 306 305 308 316 297 299 46 28 148 169 179 127 145 133 158 169 208 196 197 234 254 263 272 153 166 137 151 162 244 138 155 152 154 161
342 339 338 335 331 326 324 320 318 313 306 300 295 297 309 348 251 301 358 154 132 140 178 164 142 163 171 209 202 241 251 230 242 220 177 155 173 154 190 124 136 143 152 161 165
340 338 337 334 330 325 321 317 319 312 305 296 275 256 178 247 245 77 69 110 156 157 175 148 183 187 207 229 205 236 236 255 246 213 174 162 152 130 164 131 140 149 162 165 173
339 337 335 331 328 325 322 320 323 313 302 288 213 192 172 235 327 318 219 199 179 190 164 206 167 153 168 237 296 269 298 303 279 183 166 121 107 207 137 149 148 161 166 168 179
339 336 331 329 326 324 321 320 321 316 308 140 159 210 241 245 276 300 194 258 194 192 148 192 145 68 211 304 355 262 54 10 324 117 142 131 221 144 148 150 158 168 174 175 178
336 333 330 330 326 326 322 320 320 346 108 128 115 184 267 309 285 274 171 211 148 135 168 81 118 169 360 92 358 2 193 168 71 14 140 131 227 150 156 162 162 174 178 178 177
332 331 331 328 329 330 325 315 291 101 136 216 237 8 273 325 308 304 239 208 151 115 109 141 74 120 52 99 209 207 157 43 64 166 155 120 98 156 166 172 170 176 184 183 187
331 331 331 327 330 330 334 6 14 356 24 231 215 258 299 305 290 276 297 137 161 114 152 180 130 187 180 178 188 273 50 123 265 43 130 191 149 178 173 178 173 182 192 200 201
329 329 329 329 329 324 327 82 120 210 306 244 243 251 254 89 300 271 185 136 138 176 121 60 206 202 183 191 198 205 148 253 309 341 148 130 96 181 193 193 188 184 195 203 204
326 327 328 329 325 14 327 149 60 115 274 301 223 235 278 131 212 265 194 144 134 145 173 167 242 150 155 164 173 191 159 177 149 49 39 109 27 159 205 196 209 212 210 213 206
323 323 331 335 26 333 282 325 297 186 46 287 3 335 88 157 280 221 230 145 118 182 153 223 216 159 153 183 144 191 192 177 234 103 196 72 243 239 198 211 215 210 209 208 208
321 320 331 329 279 315 294 326 317 72 19 335 333 115 321 344 308 28 234 39 165 165 117 236 164 162 171 180 152 216 179 144 218 117 99 136 80 265 155 219 222 216 211 212 207
318 319 327 80 209 245 303 312 53 46 267 339 340 358 11 7 354 305 308 83 167 132 147 215 180 163 191 168 163 185 103 51 54 101 81 226 154 255 192 215 226 218 217 212 206
318 320 314 161 230 313 310 42 46 135 343 351 335 3 45 340 348 5 17 49 34 117 181 351 247 252 122 117 120 101 88 338 29 57 217 180 160 236 223 220 217 209 213 210 207
322 327 169 220 277 343 16 51 135 13 4 338 3 1 67 1 348 344 56 30 19 14 117 166 274 183 183 160 167 178 150 156 175 189 221 126 221 250 221 221 226 229 223 210 207
325 343 4 285 278 110 62 65 183 301 319 353 21 40 358 2 22 14 59 7 26 0 66 62 263 310 210 154 142 187 171 180 81 12 89 230 289 295 242 245 203 212 188 206 205
3 345 297 330 121 52 71 156 234 249 350 56 93 23 37 343 37 27 32 331 333 351 207 339 312 266 277 132 153 150 173 111 19 164 201 283 252 237 208 246 213 211 211 217 199
41 46 267 340 55 45 102 218 293 4 72 47 106 83 48 16 17 31 4 68 356 333 23 354 63 287 359 197 164 72 268 53 117 145 164 156 257 217 222 236 229 225 215 207 188
26 59 313 11 48 35 85 305 333 344 27 55 83 94 118 17 40 55 50 62 347 332 357 322 116 272 243 277 298 215 188 158 129 220 200 160 269 222 227 264 248 257 202 189 189
35 276 319 42 83 357 320 335 22 16 24 70 111 97 48 105 82 36 342 98 12 19 349 333 350 358 15 355 10 53 27 115 109 78 195 163 262 300 259 258 282 267 190 173 165
39 16 339 40 43 70 15 359 354 356 57 8 88 66 109 94 4 127 349 356 342 330 351 10 222 169 186 233 244 330 316 84 118 127 208 222 297 314 300 300 311 230 211 190 171
29 31 191 1 1 13 4 344 12 7 4 11 40 159 141 74 55 34 350 334 321 0 13 68 256 221 256 259 246 248 256 244 179 183 166 246 222 264 267 290 296 274 198 175 192
90 58 13 48 325 20 9 358 24 336 2 6 37 349 113 140 149 229 102 317 262 341 9 5 266 293 287 277 222 262 242 239 232 215 258 250 278 266 300 273 290 300 163 187 202
335 65 102 340 1 64 52 6 30 357 33 83 246 87 54 209 199 207 205 212 212 202 329 329 332 304 259 351 332 278 234 243 351 50 354 197 253 341 325 322 310 298 336 245 207